Weather History for New Orleans Lakefront, LA

Change the Weather History Date:

Thursday, April 4, 2013

  Actual Average Record
Temperature  
Mean Temperature 57 °F 66 °F  
Max Temperature 63 °F 76 °F 85 °F (2001)
Min Temperature 51 °F 57 °F 38 °F (1992)
Degree Days  
Heating Degree Days 8 2  
Month to date heating degree days 10 8  
Since 1 July heating degree days 1108 1253  
Cooling Degree Days 0 4  
Month to date cooling degree days 3 13  
Year to date cooling degree days 71 113  
Growing Degree Days 12 (Base 50)    
Moisture  
Dew Point 51 °F    
Average Humidity 83    
Maximum Humidity 93    
Minimum Humidity 72    
Precipitation  
Precipitation T in 0.15 in 3.62 in (1957)
Month to date precipitation 1.94 0.61  
Year to date precipitation 16.82 15.61  
Snow  
Snow 0.00 in - - ()
Month to date snowfall 0.0  
Since 1 July snowfall 0.0  
Snow Depth 0.00 in    
Sea Level Pressure  
Sea Level Pressure 29.97 in    
Wind  
Wind Speed 11 mph (NW)    
Max Wind Speed 18 mph    
Max Gust Speed 24 mph    
Visibility 10 miles    
Events      
T = Trace of Precipitation, MM = Missing Value Source: NWS Daily Summary

Daily Weather History Graph

Daily Weather History Graph

Search for Another Location

Airport:

Trip Planner

Search our weather history database for the weather conditions in past years. The results will help you decide how hot, cold, wet, or windy it might be!

Date:

Astronomy

Apr. 04, 2013 Rise Set
Actual Time 6:45 AM CDT 7:20 PM CDT
Civil Twilight 6:21 AM CDT 7:45 PM CDT
Nautical Twilight 5:53 AM CDT 8:13 PM CDT
Astronomical Twilight 5:24 AM CDT 8:42 PM CDT
Moon 2:48 AM CDT (4/4) 2:01 PM CDT (4/4)
Length of Visible Light 13h 23m
Length of Day
12h 35m
Waning Crescent, 33% of the Moon is Illuminated
Apr 4
Waning Crescent
Apr 10
New
Apr 18
First Quarter
Apr 25
Full
May 2
Last Quarter

Hourly Weather History & Observations

Time (CDT) Temp. Dew Point Humidity Pressure Visibility Wind Dir Wind Speed Gust Speed Precip Events Conditions
12:53 AM 60.1 °F 53.1 °F 78% 29.97 in 10.0 mi North 12.7 mph - N/A   Overcast
1:53 AM 60.1 °F 52.0 °F 75% 29.92 in 10.0 mi NE 10.4 mph - N/A   Overcast
2:53 AM 60.1 °F 52.0 °F 75% 29.91 in 10.0 mi ENE 4.6 mph - N/A   Overcast
3:09 AM 60.8 °F 51.8 °F 72% 29.95 in 10.0 mi Calm Calm - N/A   Overcast
3:53 AM 60.1 °F 52.0 °F 75% 29.93 in 10.0 mi North 6.9 mph - N/A   Overcast
4:53 AM 59.0 °F 52.0 °F 78% 29.92 in 10.0 mi North 6.9 mph - N/A   Overcast
5:53 AM 59.0 °F 52.0 °F 78% 29.93 in 8.0 mi NNW 8.1 mph - N/A   Overcast
6:53 AM 57.9 °F 51.1 °F 78% 29.95 in 7.0 mi NNW 6.9 mph - N/A   Overcast
7:53 AM 57.9 °F 52.0 °F 81% 29.97 in 4.0 mi NW 13.8 mph - N/A   Haze
8:53 AM 57.9 °F 51.1 °F 78% 29.98 in 9.0 mi NW 10.4 mph - N/A   Overcast
9:53 AM 59.0 °F 52.0 °F 78% 29.99 in 8.0 mi WNW 11.5 mph - N/A   Overcast
10:53 AM 61.0 °F 52.0 °F 72% 30.00 in 10.0 mi WNW 13.8 mph - N/A   Overcast
11:30 AM 62.6 °F 53.6 °F 72% 30.01 in 10.0 mi WNW 15.0 mph - N/A   Overcast
11:53 AM 63.0 °F 53.1 °F 70% 29.99 in 10.0 mi WNW 13.8 mph - N/A   Mostly Cloudy
12:53 PM 64.0 °F 53.1 °F 67% 29.98 in 10.0 mi WNW 18.4 mph - N/A   Mostly Cloudy
1:23 PM 64.4 °F 53.6 °F 68% 29.99 in 10.0 mi WNW 17.3 mph - N/A   Overcast
1:53 PM 66.9 °F 54.0 °F 63% 29.96 in 10.0 mi WNW 13.8 mph - N/A   Mostly Cloudy
2:53 PM 64.9 °F 52.0 °F 63% 29.94 in 10.0 mi WNW 18.4 mph - N/A   Overcast
3:53 PM 64.0 °F 52.0 °F 65% 29.93 in 10.0 mi West 16.1 mph - N/A   Overcast
4:53 PM 63.0 °F 51.1 °F 65% 29.92 in 10.0 mi WNW 13.8 mph - N/A   Overcast
5:53 PM 62.1 °F 51.1 °F 67% 29.93 in 9.0 mi NW 15.0 mph - N/A   Overcast
6:53 PM 62.1 °F 51.1 °F 67% 29.94 in 10.0 mi WNW 15.0 mph 25.3 mph N/A   Overcast
7:53 PM 59.0 °F 51.1 °F 75% 29.96 in 10.0 mi NNW 21.9 mph - 0.00 in   Overcast
8:25 PM 57.2 °F 50.0 °F 77% 29.98 in 10.0 mi NNW 19.6 mph - N/A   Overcast
8:53 PM 57.9 °F 48.9 °F 72% 29.97 in 10.0 mi NW 21.9 mph - N/A   Overcast
9:53 PM 57.9 °F 48.0 °F 70% 30.00 in 10.0 mi NW 23.0 mph - N/A   Overcast
10:31 PM 57.2 °F 48.2 °F 72% 30.03 in 10.0 mi NNW 21.9 mph - N/A   Overcast
10:50 PM 57.2 °F 48.2 °F 72% 30.04 in 10.0 mi NW 24.2 mph - N/A   Overcast
10:53 PM 57.0 °F 48.0 °F 72% 30.02 in 10.0 mi NW 26.5 mph 32.2 mph N/A   Overcast
11:53 PM 55.9 °F 46.9 °F 72% 30.02 in 10.0 mi NNW 21.9 mph - N/A   Overcast